Butte, MT

12:25 AM MDT on August 27, 2016 (GMT -0600)
Mooney

Weather History for KBTM - March, 2014

Change the Weather History Date:

Thursday, March 13, 2014

  Actual Average Record
Temperature  
Mean Temperature 30 °F 31 °F  
Max Temperature 46 °F 43 °F 64 °F (1994)
Min Temperature 14 °F 19 °F -15 °F (1897)
Degree Days  
Heating Degree Days 35 34  
Month to date heating degree days 476  
Since 1 July heating degree days 7045  
Cooling Degree Days 0 0  
Month to date cooling degree days 0  
Year to date cooling degree days 0  
Moisture  
Dew Point 16 °F    
Average Humidity 60    
Maximum Humidity 88    
Minimum Humidity 31    
Precipitation  
Precipitation 0.00 in 0.03 in 0.30 in (1899)
Month to date precipitation 0.27  
Year to date precipitation 1.17  
Sea Level Pressure  
Sea Level Pressure 30.08 in    
Wind  
Wind Speed 4 mph (NW)    
Max Wind Speed 14 mph    
Max Gust Speed 21 mph    
Visibility 10 miles    
Events      
T = Trace of Precipitation, MM = Missing Value Source: NWS Daily Summary

Daily Weather History Graph

Daily Weather History Graph

Search for Another Location

Airport or City:

Trip Planner

Search our weather history database for the weather conditions in past years. The results will help you decide how hot, cold, wet, or windy it might be!

Date:

Astronomy

Mar. 13, 2014 Rise Set
Actual Time 7:46 AM MDT 7:33 PM MDT
Civil Twilight 7:16 AM MDT 8:03 PM MDT
Nautical Twilight 6:41 AM MDT 8:37 PM MDT
Astronomical Twilight 6:06 AM MDT 9:13 PM MDT
Moon 4:56 PM MDT (3/13) 6:02 AM MDT (3/13)
Length of Visible Light 12h 46m
Length of Day
11h 46m
Waxing Gibbous, 92% of the Moon is Illuminated
Mar 13
Waxing Gibbous
Mar 16
Full
Mar 23
Last Quarter
Mar 30
New
Apr 7
First Quarter

Hourly Weather History & Observations

Time (MDT) Temp. Windchill Dew Point Humidity Pressure Visibility Wind Dir Wind Speed Gust Speed Precip Events Conditions
12:53 AM 19.9 °F 14.9 °F 16.0 °F 85% 30.22 in 10.0 mi Variable 3.5 mph - N/A   Clear
1:53 AM 19.0 °F - 14.0 °F 81% 30.16 in 10.0 mi Calm Calm - N/A   Clear
2:53 AM 18.0 °F 12.7 °F 14.0 °F 84% 30.15 in 10.0 mi South 3.5 mph - N/A   Clear
3:53 AM 15.1 °F 9.4 °F 12.0 °F 88% 30.13 in 10.0 mi Variable 3.5 mph - N/A   Clear
4:53 AM 17.1 °F 10.0 °F 12.0 °F 81% 30.11 in 10.0 mi NNW 4.6 mph - N/A   Clear
5:53 AM 16.0 °F - 12.0 °F 84% 30.09 in 10.0 mi Calm Calm - N/A   Clear
6:53 AM 14.0 °F 6.5 °F 10.0 °F 84% 30.09 in 10.0 mi SE 4.6 mph - N/A   Clear
7:53 AM 15.1 °F 9.4 °F 10.9 °F 84% 30.12 in 10.0 mi SSE 3.5 mph - N/A   Clear
8:53 AM 16.0 °F - 12.0 °F 84% 30.14 in 10.0 mi Calm Calm - N/A   Clear
9:53 AM 26.1 °F - 17.1 °F 69% 30.11 in 10.0 mi Calm Calm - N/A   Clear
10:53 AM 37.9 °F 33.5 °F 16.0 °F 41% 30.07 in 10.0 mi North 5.8 mph - N/A   Clear
11:53 AM 41.0 °F 37.1 °F 14.0 °F 33% 30.06 in 10.0 mi WNW 5.8 mph - N/A   Clear
12:53 PM 43.0 °F 38.2 °F 17.1 °F 35% 30.02 in 10.0 mi NW 8.1 mph - N/A   Clear
1:53 PM 44.1 °F 40.8 °F 17.1 °F 34% 30.01 in 10.0 mi WNW 5.8 mph - N/A   Clear
2:53 PM 45.0 °F 39.3 °F 17.1 °F 33% 30.01 in 10.0 mi NW 11.5 mph 20.7 mph N/A   Clear
3:53 PM 46.0 °F 39.9 °F 18.0 °F 33% 30.03 in 10.0 mi NNW 13.8 mph - N/A   Clear
4:53 PM 45.0 °F 39.3 °F 19.9 °F 37% 30.03 in 10.0 mi NNW 11.5 mph - N/A   Clear
5:53 PM 46.0 °F 41.0 °F 17.1 °F 31% 30.02 in 10.0 mi NW 10.4 mph - N/A   Clear
6:53 PM 43.0 °F 39.5 °F 19.9 °F 40% 30.06 in 10.0 mi NW 5.8 mph - N/A   Clear
7:53 PM 39.0 °F 34.0 °F 19.0 °F 45% 30.09 in 10.0 mi West 6.9 mph - N/A   Clear
8:53 PM 37.9 °F 32.7 °F 19.9 °F 48% 30.09 in 10.0 mi NW 6.9 mph - N/A   Clear
9:53 PM 34.0 °F 31.0 °F 19.9 °F 56% 30.08 in 10.0 mi Variable 3.5 mph - N/A   Clear
10:53 PM 30.9 °F 27.5 °F 19.9 °F 64% 30.04 in 10.0 mi West 3.5 mph - N/A   Clear
11:53 PM 25.0 °F 16.3 °F 18.0 °F 75% 30.06 in 10.0 mi SSE 8.1 mph - N/A   Clear